Wells Aircraft, Inc. Branson West
(417) 272-3921
393 Aero Drive
Branson West, MO 65737
(change)

Location

Wells Aircraft rentals are located at the FBO of Branson West Airport (KFWB), in West Branson, Missouri.

Wells Aircraft, Inc.
393 Aero Drive
Branson West, MO 65737
Map
Wells Location at KFWB

Quick Links


AirNav Information
(KFWB)

Branson West Weather

Additional Resources

Be prepared for the weather with these aviation resources.

KBBG 241245Z 00000KT 3/4SM BR BKN003 OVC028 15/15 A2993                KBBG 241245Z 00000KT 3/4SM BR BKN003 OVC028 15/15 A2993                KBBG 241245Z 00000KT 3/4SM BR BKN003 OVC028 15/15 A2993                KBBG 241245Z 00000KT 3/4SM BR BKN003 OVC028 15/15 A2993                KBBG 241245Z 00000KT 3/4SM BR BKN003 OVC028 15/15 A2993                KBBG 241245Z 00000KT 3/4SM BR BKN003 OVC028 15/15 A2993                
 
 
Cirrus Aircraft